Regional Weather Roundup
Issued by NWS

Home | Current Version | Previous Version | Graphics & Text | Print | Product List | Glossary On
Versions: 1 2 3 4 5 6 7 8 9 10 11 12 13 14 15 16 17 18 19 20 21 22 23 24 25 26 27 28 29 30 31 32 33 34 35 36 37 38 39 40 41 42 43 44 45 46 47 48 49 50
000
ASUS43 KDTX 230810
RWRMI
MICHIGAN HOURLY REGIONAL WEATHER ROUNDUP
NATIONAL WEATHER SERVICE DETROIT/PONTIAC MI
400 AM EDT WED APR 23 2014

NOTE: "FAIR" INDICATES FEW OR NO CLOUDS BELOW 12,000 FEET WITH NO
SIGNIFICANT WEATHER AND/OR OBSTRUCTION TO VISIBILITY.

MIZ047>049-052>055-059>063-066>070-074>076-081>083-230900-
SOUTHEAST LOWER MICHIGAN

CITY           SKY/WX    TMP DP  RH WIND       PRES   REMARKS
ADRIAN         CLEAR     35  27  72 N9        29.99R WCI  28
ALMA           CLEAR     32  28  83 NW6       30.03R WCI  27
ANN ARBOR      CLOUDY    37  28  70 NW14      29.97S WCI  28
BAD AXE        CLOUDY    36  32  85 N9G17     29.97R WCI  29
CARO           CLOUDY    38  34  86 NW8G17    29.97S WCI  32
DETROIT CITY   CLOUDY    41  28  60 N12       29.95S
DETROIT        CLOUDY    39  28  65 NW10      29.97R WCI  32
FLINT          CLOUDY    37  29  72 NW10      29.99R WCI  30
GROSSE ILE     CLOUDY    39  28  65 NW12      29.95R WCI  32
HILLSDALE      CLEAR     35  27  71 N13       29.99R WCI  26
HOWELL         CLOUDY    35  28  76 NW8       29.99R WCI  29

CITY           SKY/WX    TMP DP  RH WIND       PRES   REMARKS
JACKSON        CLOUDY    35  27  72 N9G17     30.00R WCI  28
LAMBERTVILLE   CLEAR     36  30  80 NW6       29.98R WCI  31
LANSING        PTCLDY    34  26  72 N7        30.02R WCI  28
LAPEER         CLOUDY    36  31  81 NW7       29.97R WCI  30
MASON          CLOUDY    35  29  77 NW9       30.00S WCI  28
MONROE         PTCLDY    36  28  75 NW6       29.96R WCI  31
MT. CLEMENS    CLOUDY    38  30  73 NW13      29.94R WCI  30
PONTIAC        CLOUDY    36  28  73 NW14      29.95S WCI  27
PORT HOPE        N/A     38  32  79 NW8       29.94R WCI  32
PORT HURON     CLOUDY    37  34  87 NW9       29.94S WCI  31
TRI CITIES     CLEAR     35  28  75 NW9       30.01R WCI  28
TROY           CLOUDY    38  29  69 NW12      29.96S WCI  30
SAGINAW HB     PTCLDY    36  30  80 NW12      29.99S WCI  27
YPSILANTI      CLOUDY    41  29  62 NW9       29.97S
$$
MIZ043>046-050>051-056>058-064>065-071>073-077>080-230900-
SOUTHWEST LOWER MICHIGAN

CITY           SKY/WX    TMP DP  RH WIND       PRES   REMARKS
BATTLE CREEK   CLEAR     34  26  72 NW9       30.03R WCI  27
BENTON HARBOR  CLEAR     34  28  79 N7        30.07S WCI  28
BIG RAPIDS     CLEAR     32  26  80 NW5       30.03S WCI  27
COLDWATER      CLEAR     34  27  74 N7        30.01R WCI  28
FREMONT        FAIR      31  27  84 NW7       30.06R WCI  25
HOLLAND        CLEAR     36  26  67 NW7       30.08R WCI  30
GRAND RAPIDS   CLEAR     34  26  72 NW8       30.05R WCI  27
IONIA          FAIR      33  27  79 NW6       30.03R WCI  27
KALAMAZOO      CLEAR     34  26  72 N10       30.04R WCI  26
LUDINGTON      CLEAR     34  30  83 N9        30.09R WCI  27
MARSHALL       PTCLDY    33  26  77 CALM      30.01R
MOUNT PLEASANT CLEAR     33  28  82 NW8       30.01S WCI  26
MUSKEGON       CLEAR     34  25  69 NW10      30.09R WCI  26
SOUTH HAVEN    CLEAR     34  27  76 N6        30.07S WCI  29
$$
MIZ016>042-230900-
NORTHERN LOWER MICHIGAN

CITY           SKY/WX    TMP DP  RH WIND       PRES   REMARKS
ALPENA         MOCLDY    33  27  78 NW8       30.00R WCI  26
BEAVER ISLAND  CLEAR     30  28  92 NW6       30.09R WCI  24
BELLAIRE       CLEAR     32  28  86 CALM      30.07R
CADILLAC       CLEAR     30  27  90 NW10G17   30.02R WCI  21
CHARLEVOIX     CLEAR     31  29  90 CALM      30.11R
FRANKFORT      CLEAR     32  28  85 N5        30.10R WCI  28
GAYLORD        CLEAR     29  26  89 VRB6      30.02R WCI  23
GRAYLING       CLEAR     31  28  90 NW8       30.02R WCI  23
HARBOR SPRINGS CLEAR     32  28  83 NW7       30.06R WCI  26
HOUGHTON LAKE  CLEAR     30  27  88 NW12      30.01R WCI  20
MANISTEE       CLEAR     34  27  75 N9        30.09S WCI  26
OSCODA         CLOUDY    37  28  72 NW9       29.98R WCI  30
PELLSTON       CLEAR     30  25  81 NW10      30.07R WCI  21
ROGERS CITY    CLEAR     33  29  85 NW15G21   30.03R WCI  23
TRAVERSE CITY  CLEAR     33  27  78 NW9       30.07R WCI  25
$$
MIZ007>008-015-230900-
EASTERN UPPER MICHIGAN

CITY           SKY/WX    TMP DP  RH WIND       PRES   REMARKS
KINROSS        CLEAR     30  27  86 NW10G16   30.04R WCI  21
MACKINAC ISLAN CLEAR     30  26  86 NW9       30.05R WCI  22
NEWBERRY       CLEAR     29  25  86 NW6       30.07S WCI  23
S. S. MARIE    CLEAR     31  24  75 NW7       30.05R WCI  24
MUNISING         N/A     31  25  78 N5        30.11F WCI  26
$$
MIZ004>006-011>014-085-230900-
CENTRAL UPPER MICHIGAN

CITY           SKY/WX    TMP DP  RH WIND       PRES   REMARKS
MANISTIQUE     CLEAR     29  26  89 NW6       30.10R WCI  22
ESCANABA       CLEAR     30  25  80 NW6       30.12S WCI  24
MENOMINEE      CLEAR     30  25  80 NW6       30.13R WCI  24
SAWYER-GWINN   CLEAR     26  23  88 NW5       30.11S WCI  21
$$
MIZ001>003-009>011-084-230900-
WESTERN UPPER MICHIGAN

CITY           SKY/WX    TMP DP  RH WIND       PRES   REMARKS
IRON MOUNTAIN  CLEAR     22  18  85 CALM      30.13S
HOUGHTON       CLEAR     26  21  81 NW5       30.12S WCI  20
COPPER HARBOR    N/A     32  25  75 W5        30.13S WCI  27
IRONWOOD       CLEAR     27  21  80 CALM      30.10F
$$

ABBREVIATIONS USED IN REMARKS
   TC - TEMPERATURE IN CELSIUS
  WCI - WIND CHILL INDEX
   HX - HEAT INDEX
  VSB - VISIBILITY




USA.gov is the U.S. government's official web portal to all federal, state and local government web resources and services.